Regional Weather Roundup
Issued by NWS

Home | Current Version | Previous Version | Graphics & Text | Print | Product List | Glossary On
Versions: 1 2 3 4 5 6 7 8 9 10 11 12 13 14 15 16 17 18 19 20 21 22 23 24 25 26 27 28 29 30 31 32 33 34 35 36 37 38 39 40 41 42 43 44 45 46 47 48 49 50
000
ASUS43 KLOT 260121
RWRIL

ILLINOIS REGIONAL WEATHER ROUNDUP
NATIONAL WEATHER SERVICE CHICAGO/ROMEOVILLE IL
800 PM CDT MON MAY 25 2015

NOTE: "FAIR" INDICATES FEW OR NO CLOUDS BELOW 12,000 FEET WITH NO
SIGNIFICANT WEATHER AND/OR OBSTRUCTIONS TO VISIBILITY.

* THESE STATIONS ARE NOT UNDER NWS QUALITY CONTROL. THEY ALSO MAY NOT
  REPORT WEATHER SUCH AS PRECIPITATION OR FOG.

ILZ001-002-007-009-015-016-024-260200-
NORTHWEST ILLINOIS

CITY           SKY/WX    TMP DP  RH WIND       PRES   REMARKS
MOLINE         CLEAR     75  61  61 S6        29.88R
STERLING*      CLEAR     73  61  64 SW3       29.90R
SAVANNA*       CLEAR     75  60  59 S9        29.87R
$$

ILZ003-004-008-010-011-017-018-260200-
NORTH CENTRAL ILLINOIS

CITY           SKY/WX    TMP DP  RH WIND       PRES   REMARKS
ROCKFORD       PTCLDY    74  60  60 SW12G17   29.90R
FREEPORT*      CLEAR     71  61  71 S10       29.90R
ROCHELLE*      CLEAR     72  64  74 SW9       29.90S
DE KALB*       PTCLDY    70  61  72 SW8       29.91S
PERU*          CLEAR     75  59  57 SW9       29.90S
$$

ILZ005-006-012>014-019>023-260200-
NORTHEAST ILLINOIS

CITY           SKY/WX    TMP DP  RH WIND       PRES   REMARKS
CHICAGO-OHARE  PTCLDY    76  60  57 S10       29.90F
CHICAGO-MIDWAY PTCLDY    79  60  52 SW9       29.91F HX  80
AURORA         PTCLDY    75  59  57 S8        29.90F
LANSING*       PTCLDY    75  57  53 SW6       29.93S
JOLIET*        PTCLDY    76  61  60 S5        29.91F
WAUKEGAN       PTCLDY    74  59  59 SW14      29.88F
DUPAGE AIRPORT PTCLDY    72  60  66 S7        29.89F
KANKAKEE*      MOCLDY    76  58  53 SW8       29.94F
WHEELING       PTCLDY    77  57  50 SW8       29.91F
MORRIS*        PTCLDY    76  60  57 S7        29.90F
ROMEOVILLE*    PTCLDY    74  60  61 SW10      29.91F
NORTHERLY ISL    N/A     78  56  46 SW6         N/A
$$

LMZ740>746-260200-
SOUTHERN LAKE MICHIGAN

STATION/POSITION SKY/WX   TEMP    WIND        PRES    VSBY  WAVE
                          AIR SEA DIR/SP/G                  HT/PER
                          (F)     (DEG/KT/KT) (MB)    (MI)  (FT/S)
SOUTHERN BUOY              47 38  200/ 10/ 10 1013.0S         1/ 4
HARRISON CRIB              77     210/ 15/ 18   N/A
BURNHAM HARBOR             78     190/  5/ 12   N/A
CALUMET HARBOR             79     210/  7/ 11   N/A
BURNS HARBOR               79     220/ 12/ 21 1014.2S
MICHIGAN CITY              78     170/  9/ 11   N/A
MICHIGAN CITY 6N           63 52  230/  6/  8   N/A           1/ 3
ST. JOSEPH                 60 55  200/  6/  6   N/A           2/ 4
$$

ILZ025>027-034>036-040-047-049-050-058-095>099-260200-
WEST-CENTRAL ILLINOIS

CITY           SKY/WX    TMP DP  RH WIND       PRES   REMARKS
QUINCY         CLEAR     76  65  68 SE5       29.89R
GALESBURG*     CLEAR     74  63  66 S5        29.90R
MACOMB*        CLEAR     74  64  72 S6        29.92S
JACKSONVILLE*  PTCLDY    80  67  65 SE14G21   29.91R HX  82
PITTSFIELD*    PTCLDY    79  66  64 SE7       29.91R HX  81
$$

ILZ028>032-037-038-041>044-048-051>054-059>061-260200-
CENTRAL ILLINOIS

CITY           SKY/WX    TMP DP  RH WIND       PRES   REMARKS
PONTIAC        PTCLDY    78  59  52 SW7       29.93F HX  80
BLOOMINGTON    CLEAR     76  62  61 S13       29.95S
DECATUR        PTCLDY    77  63  61 S12       29.96R
PEORIA         CLEAR     78  60  53 S5        29.91R
LACON*         CLEAR     76  59  56 S8        29.89S
LINCOLN*       CLEAR     77  65  66 S8        29.92R
SPRINGFIELD    CLEAR     79  66  64 S16       29.93R HX  81
TAYLORVILLE    PTCLDY    73  64  73 S10       29.96R
$$

ILZ033-039-045-046-055>057-062-063-260200-
EAST-CENTRAL ILLINOIS

CITY           SKY/WX    TMP DP  RH WIND       PRES   REMARKS
CHAMPAIGN      MOCLDY    77  62  59 S17G23    29.97R
DANVILLE*      CLOUDY    75  63  65 S10       29.96S
RANTOUL*       MOCLDY    78  64  62 S15G25    29.96S HX  80
MATTOON        MOCLDY    74  65  73 S12       29.97S
PARIS*         CLOUDY    75  65  72 S9G17     30.01S
$$

ILZ079-100>102-260200-
SOUTHWEST ILLINOIS

CITY           SKY/WX    TMP DP  RH WIND       PRES   REMARKS
ALTON          PTCLDY    77  70  78 SE14      29.94R
BELLEVILLE     CLEAR     76  69  81 SE12      29.95R
CAHOKIA*       CLEAR     78  67  68 SE10      29.93R HX  80
SPARTA*        CLEAR     74  67  81 SE10G18   29.99S
$$

ILZ064>066-069>071-074>076-080>082-084>086-088>090-092>094-260200-
SOUTH-CENTRAL ILLINOIS

CITY           SKY/WX    TMP DP  RH WIND       PRES   REMARKS
CARBONDALE     PTCLDY    74  67  78 SE7       29.99R
CAIRO*         MOCLDY    74  68  83 SE6       30.01S
EFFINGHAM*     MOCLDY    74  63  67 SE9       30.01S
MARION         MOCLDY    73  68  83 S6        30.02R
MT. VERNON     MOCLDY    73  64  73 S7        30.02R
CENTRALIA*     PTCLDY    73  65  76 S9        30.00R
SALEM*         PTCLDY    76  67  73 S7        30.00R
METROPOLIS*    MOCLDY    74  69  85 SE5       30.02S
$$

ILZ067-068-072-073-078-083-087-091-260200-
SOUTHEAST ILLINOIS

CITY           SKY/WX    TMP DP  RH WIND       PRES   REMARKS
LAWRENCEVILLE  CLOUDY    73  66  78 S13       30.03R
FLORA*         CLOUDY    74  66  76 S10       30.01S
FAIRFIELD*     CLOUDY    73  67  79 S9        30.01R
HARRISBURG*    CLOUDY    72  68  88 SE9       30.04R
ROBINSON*      CLOUDY    73  65  76 S10       30.03S
CARMI*         CLOUDY    72  64  78 SE9       30.02S
$$

ABBREVIATIONS USED IN REMARKS
   TC - TEMPERATURE IN CELSIUS
  WCI - WIND CHILL INDEX
   HX - HEAT INDEX
  VSB - VISIBILITY
$$



USA.gov is the U.S. government's official web portal to all federal, state and local government web resources and services.